Theta_e
345 349 350 345 342 342 342 342 342 342 343 345 346 347 349 350 350 350 349 347 345 344 343 343 343 343 343 344 343 343 344 344 344 344 346 345 332 323 325 323 324 324 323 323 323 323 323 323 324 325 326 329 331 333 335 336 338 338 338 339 339 340 340 340 340 340 340 341 341 341 341 341 340 340 340 340 341 343 345 346 346 346 346 346 346
348 350 350 348 348 346 344 343 343 344 346 347 349 349 350 350 352 351 349 347 345 344 344 343 343 344 344 344 343 343 344 344 343 341 342 346 336 323 325 325 323 324 323 323 323 323 324 325 327 329 332 335 337 338 339 339 340 340 341 341 341 341 341 341 341 341 341 340 340 340 340 341 340 341 342 343 344 345 346 346 346 346 347 347 347
347 347 349 350 350 348 347 346 346 347 349 349 350 351 351 351 351 351 350 346 345 345 344 344 344 344 344 345 344 343 346 345 344 344 341 343 340 328 323 324 324 323 322 323 324 325 326 329 333 336 338 339 340 341 342 343 343 344 344 344 345 344 344 343 342 342 340 340 340 340 340 341 341 342 342 342 342 342 342 341 342 343 344 345 344
343 344 348 350 350 350 349 348 348 349 349 349 349 349 350 348 346 349 350 346 345 344 343 344 343 343 343 344 344 343 346 346 343 343 341 342 344 339 330 324 322 323 324 324 325 328 331 335 337 338 340 341 343 344 345 346 346 346 346 346 346 346 346 345 343 342 340 340 340 341 342 342 341 340 339 337 334 333 332 332 335 339 341 341 340
340 344 348 350 350 350 349 349 349 349 347 346 348 349 349 348 347 349 349 347 345 344 343 343 343 344 344 343 344 343 344 345 344 344 345 345 346 347 342 330 325 324 324 326 329 333 336 337 339 340 342 344 345 346 346 346 345 344 344 344 344 345 345 344 343 341 341 342 342 342 342 340 338 335 333 331 330 328 327 327 329 331 332 332 331
341 347 349 349 351 350 350 350 347 347 345 344 348 350 351 351 350 349 347 346 344 344 343 342 343 344 344 344 343 344 345 345 345 346 348 348 346 349 348 344 340 333 330 332 333 336 338 337 339 341 343 344 345 345 345 344 343 342 341 341 342 343 343 342 342 341 341 342 342 341 338 336 333 332 331 330 328 327 325 325 325 325 325 324 325
341 348 349 349 351 351 350 348 345 347 347 346 350 351 352 352 351 349 347 345 344 343 344 343 343 342 344 344 343 345 346 344 346 345 345 346 346 348 349 350 351 346 345 345 338 336 338 339 341 342 342 343 343 344 344 343 342 340 339 340 342 342 341 341 340 340 340 339 338 337 334 333 332 332 332 330 329 328 327 326 325 325 325 324 325
338 346 349 349 350 350 349 344 345 351 349 348 351 351 352 351 350 351 349 346 344 343 344 344 343 341 343 344 341 345 345 343 347 347 345 346 346 346 347 348 348 347 350 352 346 340 337 338 341 340 341 342 343 343 342 341 339 336 336 339 341 339 338 338 337 336 335 335 334 333 332 332 332 332 332 331 331 330 329 328 328 327 326 326 326
337 343 349 350 348 349 347 343 347 350 347 350 353 351 352 350 349 352 351 349 345 343 344 344 343 342 343 343 341 343 345 345 349 347 345 347 346 345 347 346 345 346 351 353 352 348 342 339 341 341 340 340 341 340 339 336 335 334 335 337 336 334 333 332 331 331 330 330 330 330 330 330 330 330 331 332 331 332 331 330 329 329 328 328 328
338 340 349 350 348 350 347 344 347 345 347 354 354 352 353 352 351 352 353 353 349 345 345 345 344 343 342 340 341 343 344 345 347 347 346 347 346 346 348 346 347 349 349 350 350 351 349 346 348 347 340 337 338 336 333 333 334 333 332 331 330 328 328 327 327 327 327 328 328 328 329 329 329 329 330 331 331 332 332 332 331 331 331 330 329
340 341 347 350 349 350 346 345 345 344 350 354 353 354 354 354 354 352 352 354 351 347 345 346 345 343 342 339 342 345 345 344 344 347 348 346 345 346 346 345 347 347 346 348 348 348 349 350 353 352 344 340 338 334 330 330 330 328 327 326 325 326 326 326 326 326 327 328 329 330 331 331 330 330 330 331 331 331 332 332 332 333 333 332 330
342 340 343 348 349 348 343 344 346 346 352 356 355 353 350 352 353 351 353 352 348 346 345 346 343 342 342 340 343 344 345 346 346 346 346 345 344 345 346 344 345 345 345 347 346 346 348 349 353 353 351 348 342 337 331 328 327 325 325 325 325 327 328 329 330 330 330 331 332 334 335 335 334 333 332 332 332 333 332 332 334 335 335 334 333
342 341 341 344 346 346 342 345 349 348 350 354 354 350 347 351 350 350 355 353 347 347 346 346 342 340 342 340 343 344 342 344 345 345 345 344 344 343 345 344 343 343 342 344 345 347 347 348 352 352 353 353 349 345 337 329 328 327 326 328 329 330 331 332 334 334 334 334 335 336 336 337 337 336 336 336 336 335 334 334 337 338 338 338 336
342 341 341 342 343 344 342 345 350 347 345 347 347 345 346 350 349 349 355 352 348 347 346 346 344 342 342 340 341 343 341 342 343 343 344 343 343 343 343 345 345 343 341 342 345 347 344 346 350 350 353 354 353 353 347 334 330 330 330 331 332 333 334 336 337 337 337 337 337 337 337 337 338 338 338 339 339 337 336 337 338 339 341 341 339
343 343 342 342 343 345 345 345 346 345 344 345 345 344 345 351 353 351 352 350 347 347 346 347 346 342 342 342 340 340 341 342 341 342 342 341 342 342 341 343 343 342 343 344 344 344 343 345 349 350 352 352 352 355 353 341 334 333 333 334 336 336 337 338 338 339 337 338 338 338 338 338 339 337 338 340 340 339 338 338 340 342 343 343 342
344 345 346 343 343 346 349 346 344 345 345 344 346 348 349 354 357 355 353 350 346 347 347 347 349 348 347 345 342 341 343 343 342 341 340 340 341 340 340 342 341 342 347 346 343 344 343 345 348 349 351 351 351 354 353 347 341 338 337 337 337 337 337 337 338 338 337 337 338 338 339 339 341 339 339 340 341 342 341 341 344 345 345 345 344
345 347 348 344 343 346 347 346 344 345 347 349 352 353 354 355 355 356 356 353 349 346 347 347 347 350 351 349 346 345 344 343 343 343 342 340 340 339 339 341 342 344 346 342 341 344 345 345 346 348 351 352 352 351 350 348 350 348 341 339 340 338 338 338 338 338 338 338 338 339 340 341 343 343 342 341 341 343 344 345 346 347 346 345 345
346 348 348 344 344 344 344 346 345 345 350 354 354 352 355 356 355 357 357 355 352 347 346 348 347 348 349 348 348 347 345 344 343 343 343 341 339 337 338 340 342 344 345 341 342 345 343 343 346 347 348 349 349 350 349 346 350 353 346 342 344 342 341 340 340 340 340 340 340 340 342 343 345 347 347 345 343 343 345 346 346 346 346 345 346
348 348 346 344 345 344 343 346 348 347 347 350 352 352 355 356 355 356 354 354 355 353 349 348 348 349 348 346 347 347 346 346 347 347 345 343 341 339 339 340 341 342 343 342 342 343 341 341 344 347 346 345 345 346 347 344 344 348 347 346 347 345 345 344 343 343 342 343 343 343 344 345 347 349 350 349 347 344 344 345 345 345 345 345 346
350 347 344 344 344 344 343 345 351 352 348 351 355 355 354 352 349 349 347 350 355 355 353 351 350 350 350 349 347 347 347 345 347 349 347 345 343 341 341 341 341 342 341 342 341 341 342 341 340 343 345 345 345 343 344 345 341 339 345 348 348 347 347 347 346 346 344 344 346 346 346 347 348 349 350 351 350 348 346 347 347 346 345 344 345
349 346 344 344 343 345 344 343 349 352 351 355 356 354 351 347 344 346 346 350 354 352 352 354 353 352 352 351 349 349 349 346 346 346 346 347 344 341 342 341 341 340 341 342 342 341 342 343 341 343 343 345 347 345 342 343 342 339 343 347 348 348 348 348 348 347 345 345 345 347 348 348 348 349 349 350 351 350 349 349 350 348 347 345 343
349 347 345 345 343 345 346 344 347 351 353 357 356 351 347 345 345 347 347 349 352 353 352 353 353 353 352 349 348 350 349 348 349 346 345 347 345 343 343 343 342 341 342 342 341 340 341 343 343 343 343 343 346 344 341 342 342 342 347 349 348 348 349 349 348 347 345 343 342 344 347 347 347 346 347 349 350 350 350 350 351 351 349 346 343
351 348 345 346 344 344 349 349 349 352 352 355 355 351 349 350 348 345 346 346 349 352 353 352 351 350 350 348 348 350 348 348 349 347 345 345 345 344 343 344 344 343 345 345 343 342 342 343 344 344 344 344 345 344 343 344 343 344 347 350 349 348 348 349 347 346 344 342 340 340 342 344 344 342 343 347 349 349 348 347 349 351 350 347 343
353 351 348 350 346 342 349 351 350 350 350 353 356 353 352 355 351 347 347 346 346 350 351 353 352 349 351 350 349 350 348 348 348 348 347 346 344 344 345 345 344 344 345 345 345 344 344 345 346 347 346 345 346 346 344 345 346 345 346 350 350 347 348 348 346 345 343 341 340 339 340 340 339 340 342 346 348 348 347 344 343 348 349 346 342
353 353 351 352 347 341 345 348 347 347 348 351 354 353 354 355 353 352 351 348 348 349 349 353 355 352 352 352 351 351 351 350 349 347 347 347 347 347 348 346 345 345 345 346 346 344 344 346 347 348 348 348 348 345 343 346 346 343 347 352 349 346 349 349 346 346 343 341 340 340 340 339 338 341 343 346 347 348 348 343 337 341 347 344 339
353 353 353 354 350 345 343 344 344 344 345 347 347 348 350 353 353 354 355 352 349 347 349 354 354 352 352 352 352 351 350 351 350 348 348 348 349 350 350 348 347 346 345 346 347 345 345 346 345 347 349 351 351 346 343 348 346 343 348 351 348 347 350 350 349 348 343 341 341 340 339 338 339 342 344 346 347 348 349 345 335 334 340 341 336
355 354 354 354 352 348 344 344 344 344 344 344 345 345 346 346 349 351 354 354 349 346 352 356 353 352 352 351 351 350 350 351 351 350 350 349 350 350 350 350 350 349 346 345 346 346 346 345 344 347 350 352 352 348 346 349 349 347 350 350 349 350 350 351 351 348 343 342 342 340 338 337 338 342 344 344 345 347 349 349 339 330 332 334 332
354 353 352 350 350 348 347 347 346 344 344 343 345 348 345 345 347 345 349 356 353 347 350 355 354 352 352 351 350 349 349 351 351 351 351 352 351 350 350 351 352 352 350 349 348 347 346 344 344 346 349 351 352 350 349 349 350 350 351 351 350 350 351 352 350 345 345 346 343 339 336 337 338 340 340 339 340 342 347 350 343 331 329 329 328
354 352 350 347 346 347 349 350 347 345 345 343 344 347 344 346 348 345 348 356 354 346 348 355 356 354 354 354 353 351 351 351 350 349 351 353 351 350 351 352 354 354 353 353 352 350 347 346 344 344 347 349 350 351 350 348 349 349 350 352 353 352 349 347 345 346 350 349 345 342 338 335 335 335 335 334 334 337 342 347 344 335 330 329 326
354 354 353 348 345 347 349 350 348 345 347 346 345 346 345 348 351 348 348 351 348 345 346 350 355 356 356 355 355 354 353 352 350 350 353 355 353 351 352 353 355 355 355 355 355 352 349 347 346 346 348 348 348 350 349 348 349 349 350 353 355 352 345 343 346 350 350 348 348 347 343 337 333 332 332 331 330 332 335 340 341 337 333 331 328
353 353 354 352 349 346 346 347 347 346 347 347 346 345 345 349 351 351 350 349 345 346 347 348 354 357 356 356 355 354 355 355 353 352 352 354 354 353 353 354 356 355 355 356 356 354 350 348 349 349 349 349 349 350 350 349 349 349 351 352 352 348 344 346 350 348 347 347 348 348 347 343 335 331 331 330 330 330 330 333 336 337 335 333 331
353 352 354 355 353 350 350 351 352 351 350 350 349 346 344 347 351 354 356 353 347 346 348 350 356 357 354 353 353 352 353 355 355 354 353 354 355 355 355 355 355 356 357 358 357 355 352 349 350 349 350 351 350 350 351 350 349 349 350 350 349 348 347 348 348 345 344 344 345 347 347 344 339 335 332 331 330 330 330 330 332 334 335 335 333
354 353 353 355 355 354 354 354 355 355 352 352 353 350 345 344 346 351 354 350 345 347 349 349 352 355 352 348 347 348 347 349 354 355 354 353 354 354 355 355 355 355 357 359 359 357 354 352 352 351 351 352 351 351 351 350 348 349 349 349 349 348 347 346 345 344 342 341 344 346 343 341 341 339 336 334 333 332 332 332 332 333 333 333 333
355 355 354 355 355 355 355 355 356 358 352 350 355 355 351 346 345 351 354 349 344 347 348 346 348 353 353 348 346 348 348 349 353 354 353 353 354 354 353 354 353 352 354 358 358 356 356 355 353 351 351 350 350 349 348 349 349 348 348 349 348 346 344 344 344 343 342 342 343 342 341 342 343 342 341 341 339 337 336 335 334 333 333 332 332
355 355 354 354 354 354 356 356 355 356 351 348 354 357 354 348 346 352 357 355 351 350 351 350 350 354 355 353 352 352 353 355 355 355 354 354 353 353 354 354 354 354 354 355 355 355 355 353 350 349 348 347 348 348 348 347 347 346 346 347 346 345 343 344 343 342 342 342 342 341 342 343 343 343 344 344 343 343 342 340 338 336 335 333 332
354 355 354 356 355 352 354 355 351 351 351 349 353 356 353 350 348 349 353 354 354 353 353 354 354 354 355 355 355 355 354 355 355 354 353 352 352 354 354 354 353 354 353 353 353 353 352 350 347 346 346 347 349 350 347 345 345 346 346 345 344 343 344 344 343 341 341 341 340 341 342 343 343 345 346 346 346 346 347 346 344 339 335 333 331
353 354 354 356 357 352 352 355 351 348 350 351 353 355 356 355 353 353 353 352 352 351 350 351 351 351 351 352 353 352 353 354 353 352 351 351 352 351 350 350 350 350 350 350 349 349 350 349 347 346 347 349 350 349 348 347 346 346 345 346 346 345 346 346 344 342 342 341 341 342 343 344 346 347 347 347 348 349 349 350 348 343 338 334 330
351 354 354 355 356 353 352 356 355 350 348 351 351 352 357 358 356 355 355 354 353 352 351 350 349 349 349 350 350 350 351 352 350 350 349 348 348 348 347 348 348 348 348 348 348 347 348 350 349 348 348 348 347 346 346 346 345 345 346 348 348 347 348 348 349 347 345 345 346 345 345 347 348 348 348 349 350 350 351 351 349 347 345 339 333
350 352 353 354 355 355 354 356 357 353 349 350 350 348 352 357 357 356 354 352 352 352 350 349 349 348 348 348 348 348 349 349 349 349 348 347 346 346 346 346 347 348 347 345 345 345 345 346 346 345 344 344 343 343 344 345 345 346 347 348 347 347 348 350 351 350 347 347 349 349 348 348 348 349 350 351 352 351 351 350 350 350 349 344 340
348 348 349 351 353 354 354 354 355 354 351 351 352 349 348 351 354 355 354 352 351 350 349 348 347 346 345 345 345 345 345 346 348 348 346 347 347 347 347 348 347 347 346 345 346 347 347 347 346 345 345 344 344 344 344 344 344 345 345 345 346 347 349 350 350 349 346 347 350 351 349 347 348 352 353 352 353 353 351 350 350 350 350 347 346
347 346 346 347 348 350 352 352 352 352 351 351 352 351 350 349 351 352 352 352 351 349 348 348 347 346 345 344 343 343 342 344 346 344 342 342 342 341 342 342 342 344 345 345 346 348 348 349 349 348 346 345 344 343 342 343 343 343 344 345 346 348 349 351 349 346 346 348 351 351 347 344 348 351 351 352 354 354 352 351 351 350 350 350 349
346 346 346 345 345 346 348 350 350 350 348 348 349 350 351 350 350 352 351 352 351 350 349 348 348 346 345 344 344 343 343 344 345 344 341 338 336 335 335 336 338 341 342 342 343 346 348 349 349 347 345 343 342 342 342 343 343 343 344 346 349 350 350 350 348 345 345 349 351 351 347 343 346 349 351 354 356 354 353 353 351 351 350 351 350
348 347 346 346 345 345 345 346 348 348 347 346 346 347 348 347 347 349 351 352 352 352 352 351 349 347 346 344 343 343 344 345 345 345 342 339 338 339 340 341 342 342 343 343 344 345 347 348 347 346 345 344 344 345 344 344 345 346 348 349 349 349 349 350 350 348 347 350 352 352 347 343 347 353 354 356 356 355 354 353 352 351 350 351 352
351 349 349 348 346 344 344 344 344 345 345 345 345 346 346 344 342 340 343 347 350 350 350 350 349 348 347 345 344 343 343 344 346 346 345 343 343 343 343 344 344 344 344 344 344 344 345 347 348 347 347 347 347 347 346 346 347 347 348 347 347 348 348 349 351 349 348 350 351 351 348 344 349 356 356 355 356 355 353 354 353 352 351 350 352
352 351 351 350 347 346 345 344 344 344 344 345 345 345 345 344 340 337 336 339 344 347 348 348 348 348 348 347 346 345 344 344 345 347 348 348 345 342 342 343 343 343 343 343 344 344 344 345 346 347 347 347 347 347 347 348 347 346 346 347 347 348 349 348 348 348 347 348 349 350 350 348 352 357 357 356 356 355 353 354 354 353 352 352 352
351 352 353 353 352 351 348 347 348 349 348 347 346 346 345 343 340 337 334 333 339 345 347 346 346 346 347 348 347 347 345 345 346 347 348 349 347 344 344 344 343 343 344 344 344 346 347 347 346 346 345 345 346 347 347 348 349 348 349 350 348 349 349 348 348 347 347 348 350 353 353 352 353 356 356 355 355 354 353 354 355 355 354 353 352
350 351 351 353 355 355 354 352 352 352 352 350 349 348 346 343 341 339 336 334 337 342 346 347 346 346 348 349 349 349 348 348 349 350 351 351 350 348 346 345 346 348 349 349 349 350 350 350 349 348 348 348 349 348 348 349 350 350 351 351 350 349 349 348 348 349 351 353 354 353 353 353 354 354 354 354 355 355 355 355 356 356 355 355 355
351 351 352 353 353 354 355 354 353 353 352 350 349 348 345 343 343 343 343 342 340 340 343 346 348 349 351 351 351 352 352 352 353 353 352 351 349 348 346 346 348 351 352 352 351 350 350 350 351 351 351 351 350 350 350 351 350 351 351 350 349 350 350 351 353 354 355 356 355 353 353 352 353 354 355 355 355 356 356 356 356 356 355 355 355
353 353 353 353 353 353 353 353 352 352 350 349 349 349 347 346 345 347 349 348 347 345 346 346 347 349 350 350 349 349 350 352 354 354 353 351 349 348 348 348 351 353 353 352 352 350 350 351 352 352 351 351 351 352 352 352 352 352 353 352 352 352 352 353 355 355 355 356 355 355 356 355 354 355 356 356 355 356 357 356 356 355 355 356 356
353 353 353 354 353 353 353 353 352 352 350 349 351 351 351 350 349 350 351 350 350 352 352 350 348 348 349 349 347 347 349 351 352 352 352 351 350 349 350 351 354 355 354 354 353 351 351 352 353 354 353 352 353 353 352 352 353 354 354 354 354 353 353 354 355 355 355 355 355 356 356 356 355 356 356 356 355 354 356 357 356 356 356 356 357
351 351 351 351 352 352 352 351 352 351 350 350 351 352 352 352 351 351 351 350 351 353 355 353 351 350 350 349 346 347 350 351 350 351 351 351 351 351 352 353 354 355 355 354 353 353 353 354 354 354 354 354 353 353 353 353 353 352 352 354 355 354 354 355 355 355 355 355 356 356 355 355 355 356 356 356 355 352 352 354 356 357 357 357 357
Wind_Speed
13 12 11 13 15 14 15 15 14 13 12 11 9 9 8 7 7 6 6 6 6 6 6 6 6 6 6 6 6 6 6 5 5 5 4 2 4 6 5 5 6 7 7 7 8 8 8 8 9 10 10 12 12 12 11 11 11 10 10 10 10 9 9 9 8 8 8 8 9 9 9 10 10 10 10 11 10 10 10 10 10 10 10 11 11
11 12 12 12 11 11 12 12 12 11 9 8 8 7 6 6 6 5 6 6 6 6 6 6 6 6 6 6 6 5 5 5 5 5 5 3 2 5 6 6 7 7 7 7 8 9 9 9 9 10 11 11 11 11 10 10 10 9 9 9 9 9 8 8 8 8 8 9 10 10 10 10 11 11 11 11 11 10 10 10 10 10 9 10 11
12 13 13 12 10 9 9 10 10 9 7 7 7 6 5 5 6 5 6 6 6 6 6 6 6 6 6 6 5 5 5 5 5 5 5 4 2 5 7 6 7 8 8 8 8 9 9 10 10 10 10 10 10 10 10 10 9 9 9 9 9 9 9 9 9 9 9 9 9 10 10 10 10 10 10 10 10 10 11 10 10 10 9 10 11
14 13 12 11 10 9 8 8 9 8 7 7 7 6 6 6 7 8 6 5 5 5 5 5 5 5 5 5 5 4 4 4 5 5 4 4 3 4 5 6 8 7 7 8 9 9 9 10 9 9 9 9 10 10 10 10 10 10 10 10 10 9 9 9 9 9 9 8 8 8 9 9 9 9 10 10 10 10 10 9 9 10 10 10 11
15 13 11 10 9 9 8 8 8 8 8 9 9 8 6 6 6 6 5 4 4 5 5 5 5 5 5 5 5 4 4 4 4 4 3 4 4 3 3 5 8 8 8 8 9 10 9 9 8 8 9 9 10 10 10 10 11 10 10 10 9 8 8 8 8 8 8 8 8 8 8 8 9 9 9 9 9 9 9 9 9 9 9 9 9
15 12 9 10 10 9 8 7 8 9 8 10 10 6 4 4 4 4 4 4 4 4 4 4 4 4 4 4 4 3 3 3 3 4 4 3 3 3 2 3 5 6 7 9 9 9 8 8 8 8 9 9 10 10 11 11 11 10 9 9 7 7 7 7 7 7 8 8 8 8 8 9 9 9 10 10 10 9 9 9 8 8 8 8 9
14 12 8 9 9 8 8 7 9 9 6 8 8 4 3 3 3 3 3 4 4 4 4 4 4 4 4 4 4 4 3 3 3 3 4 3 2 2 2 2 1 1 3 5 7 8 7 8 8 9 9 10 10 11 11 11 10 10 9 8 7 8 8 8 8 8 9 9 9 9 10 10 10 11 11 11 11 10 10 9 9 8 9 9 9
13 13 9 7 7 7 7 7 9 7 4 7 6 3 3 3 3 3 2 3 3 4 4 4 4 4 4 3 3 3 3 3 3 3 4 3 2 2 1 2 2 2 4 2 4 6 8 8 9 9 10 10 11 11 11 11 10 10 9 8 8 8 9 9 10 10 10 10 11 11 12 12 12 13 12 12 12 11 11 10 10 10 10 10 10
11 13 10 6 6 6 6 7 7 5 6 6 4 3 3 3 4 4 3 3 2 3 4 3 4 4 4 5 3 2 3 2 2 3 4 3 2 2 1 1 3 6 5 2 2 5 7 8 9 10 11 11 11 11 11 11 11 10 9 9 10 10 11 11 11 12 12 13 13 13 13 14 14 14 14 13 13 13 12 12 12 12 12 12 12
10 12 11 6 7 6 6 7 6 7 8 5 3 3 3 2 3 3 3 3 3 3 3 3 3 4 4 4 2 2 2 1 3 4 2 2 2 3 3 1 3 4 3 2 2 4 5 7 9 10 11 12 12 12 12 12 12 12 12 12 12 13 13 13 13 14 14 14 14 14 15 15 15 15 14 14 14 14 13 13 13 13 14 14 13
10 11 11 8 7 7 7 7 7 8 8 5 3 4 4 4 2 2 3 3 3 3 4 3 3 4 5 5 2 2 2 1 2 2 1 2 3 4 3 2 2 1 4 4 3 5 5 5 7 7 8 11 12 13 13 14 14 14 14 14 14 14 15 15 15 15 16 15 15 15 15 15 15 15 15 15 15 15 15 15 15 15 15 15 15
11 11 11 9 8 7 8 8 7 8 9 5 3 4 5 5 3 4 4 2 3 3 3 4 4 5 5 4 3 2 2 1 2 2 2 3 2 2 3 3 3 1 2 4 3 2 3 4 5 3 5 9 11 12 13 13 14 15 15 15 15 15 15 16 16 17 17 16 16 16 16 16 16 16 16 16 16 16 16 16 16 16 17 17 16
11 11 10 10 9 8 9 9 6 7 9 7 5 5 6 5 4 6 4 2 4 3 4 5 5 6 6 5 5 3 3 3 2 2 2 3 3 2 2 3 2 3 4 4 5 3 3 6 6 2 4 6 9 11 11 13 13 14 14 15 15 15 16 16 17 17 17 17 17 17 17 16 17 16 16 16 16 16 16 16 16 17 18 18 18
11 11 10 10 10 9 9 8 6 6 7 7 6 6 7 5 4 6 5 3 4 4 5 6 4 6 7 6 6 5 3 1 1 2 3 3 4 3 2 3 2 4 4 3 6 4 2 5 4 2 3 3 5 8 10 11 11 12 13 14 14 15 16 16 17 17 17 17 17 17 17 17 17 17 16 16 16 17 16 16 17 18 19 20 20
10 10 10 10 10 9 8 7 7 7 7 7 6 6 8 7 5 5 6 4 5 5 5 6 5 5 7 6 6 6 4 1 1 2 2 2 3 3 2 3 4 3 2 2 5 3 1 3 3 4 4 3 3 3 6 10 10 11 12 13 14 15 15 16 16 16 17 17 17 17 18 17 17 17 17 16 17 17 16 16 17 19 20 20 21
10 9 9 10 10 9 7 7 7 7 7 7 6 5 6 6 5 5 6 5 6 6 5 5 7 6 3 4 5 5 5 3 3 3 2 1 3 3 2 3 4 2 2 3 3 1 1 1 3 6 6 6 6 4 4 10 11 11 13 14 14 15 15 15 16 16 17 17 17 17 18 18 17 17 17 16 16 17 17 17 18 19 20 21 22
10 9 8 9 10 9 8 7 7 8 7 5 5 4 4 4 5 5 5 5 5 6 6 5 7 6 4 3 4 3 2 2 3 3 2 2 1 2 2 3 4 2 1 2 1 1 2 0 4 6 7 8 8 7 6 11 13 12 13 14 14 15 16 16 17 17 17 17 18 18 17 17 17 16 17 17 17 17 17 17 18 19 21 22 23
10 9 8 9 9 9 9 7 6 7 7 6 4 5 4 3 4 4 3 5 6 5 6 6 6 6 5 4 5 4 1 2 3 2 2 2 1 2 2 2 2 1 0 1 0 1 1 2 3 3 6 9 9 10 9 11 12 11 13 14 15 16 17 17 18 18 18 18 18 18 18 17 17 16 16 17 17 17 17 18 19 20 21 23 23
9 9 9 9 9 9 9 8 6 5 7 7 5 4 4 3 3 4 5 6 7 6 5 5 5 5 5 4 4 5 3 2 3 2 3 3 1 1 2 1 2 1 1 0 1 2 2 4 3 1 6 8 8 10 7 8 10 9 10 13 15 16 16 17 18 18 18 18 18 18 18 18 17 16 16 16 17 17 17 18 19 20 21 22 23
10 9 9 9 8 9 9 9 8 6 6 7 5 4 4 4 5 5 6 7 7 6 5 6 5 4 5 4 3 3 3 3 2 2 2 4 2 0 0 1 2 3 4 3 3 3 3 4 5 4 5 6 6 5 3 5 9 10 9 11 14 15 16 16 17 18 18 18 18 18 18 18 18 17 16 16 17 17 18 18 19 19 21 22 23
10 9 9 9 8 8 8 9 9 8 6 5 4 6 5 5 6 6 5 5 4 5 6 6 5 4 3 4 4 2 1 1 1 1 1 1 1 1 2 2 2 3 5 5 5 5 4 5 6 3 3 5 8 7 6 6 8 10 10 12 14 15 16 16 17 18 18 18 18 18 18 18 18 18 17 17 17 17 17 18 18 19 20 22 23
9 9 9 8 8 8 8 8 8 7 6 5 5 6 5 5 6 6 5 5 4 4 4 4 4 4 2 3 4 2 2 1 1 1 1 1 3 2 2 2 3 4 4 5 5 4 4 5 4 2 1 5 9 11 12 11 10 10 11 14 16 16 16 16 17 18 19 19 19 18 18 18 18 18 18 17 17 17 17 17 18 19 20 21 22
8 8 8 8 8 9 8 7 7 7 7 6 5 4 4 4 4 4 4 4 4 4 3 2 2 2 1 1 2 1 1 1 2 2 1 3 3 2 2 4 5 4 4 4 4 3 4 5 3 4 5 6 10 12 11 11 12 12 14 17 19 18 16 16 17 19 20 20 20 19 18 18 19 19 18 17 16 16 17 17 18 18 19 21 22
9 8 8 8 8 9 9 8 8 8 8 7 5 5 6 4 4 4 3 3 3 4 4 2 1 1 1 1 1 2 1 2 3 1 1 2 3 3 3 4 5 4 4 5 6 5 5 5 3 6 10 9 8 10 11 9 11 13 14 16 19 18 17 18 19 19 20 21 21 20 19 19 19 18 17 16 16 15 16 17 18 18 19 20 22
10 9 9 9 9 9 9 9 8 8 8 8 9 10 8 5 4 3 2 2 2 2 3 2 2 2 1 2 2 2 2 3 3 3 3 3 3 4 4 5 5 5 4 5 7 7 5 4 5 8 11 9 7 12 14 10 10 13 13 16 19 17 18 21 21 20 21 22 22 22 20 19 18 17 16 16 16 15 15 17 18 18 18 20 21
9 9 9 9 9 9 9 9 8 9 9 8 9 10 9 6 4 4 3 3 3 3 2 1 2 2 2 3 3 3 3 3 3 3 4 3 3 4 4 5 7 6 5 6 6 7 6 5 8 11 10 9 10 15 15 11 12 13 13 17 18 16 18 22 22 21 23 24 23 22 21 19 18 17 16 17 16 15 15 17 18 18 18 19 20
9 9 10 10 10 9 9 9 8 8 8 8 8 8 8 7 5 6 5 3 3 3 2 2 3 3 3 4 3 3 4 4 4 4 4 3 2 3 4 4 6 6 6 7 7 7 7 6 9 10 8 9 12 15 13 11 13 14 15 17 16 16 19 20 22 23 23 22 21 20 20 19 18 17 17 18 18 16 16 16 17 18 18 18 19
9 10 11 11 10 10 9 8 8 8 8 8 8 8 8 7 6 6 5 3 4 4 3 2 3 3 3 4 4 3 4 4 4 3 3 3 2 3 4 4 5 5 6 7 7 8 9 8 9 8 6 9 13 13 11 10 12 14 16 17 15 14 18 20 22 21 20 20 20 19 19 18 18 18 18 19 18 17 16 16 17 17 18 18 18
9 9 10 11 11 10 10 8 8 8 8 8 8 8 8 7 6 6 5 5 7 6 4 3 3 3 3 4 4 3 4 4 4 4 4 5 3 3 3 3 4 5 7 8 8 9 9 9 10 9 8 10 12 11 10 11 13 15 15 16 14 13 17 19 18 17 18 20 21 20 20 19 19 19 19 19 19 18 16 16 16 17 18 18 18
9 9 9 10 10 10 11 10 9 9 8 8 9 8 8 7 7 7 7 7 7 6 5 5 4 4 4 4 4 4 4 5 4 4 4 5 4 3 4 4 4 5 6 8 9 9 9 10 10 11 11 11 11 11 11 11 14 16 16 15 14 15 18 17 15 16 19 20 20 21 22 22 21 20 20 21 20 19 18 17 16 16 17 18 18
10 10 9 9 9 10 10 10 9 9 9 9 9 8 8 7 7 6 6 7 7 5 6 5 4 5 5 4 5 4 4 5 5 5 5 5 4 4 5 5 5 6 7 8 9 9 9 11 11 12 12 12 12 12 12 12 14 16 16 15 16 18 19 17 16 18 20 20 21 22 23 24 24 22 22 21 21 20 19 18 17 16 17 18 18
10 10 9 10 9 9 9 9 8 9 8 8 8 8 8 8 7 6 7 9 7 6 6 6 5 6 7 6 6 6 5 5 5 5 5 5 5 5 5 6 6 7 7 8 10 10 10 11 12 12 12 12 12 12 13 13 13 14 16 16 17 18 18 16 16 19 20 21 22 21 22 26 26 23 23 22 21 21 19 19 18 17 18 18 18
10 10 10 10 10 9 9 9 9 8 8 8 8 8 8 8 8 8 8 8 7 6 6 6 6 7 7 7 7 7 7 7 6 6 6 6 6 6 6 6 6 7 7 8 10 12 12 11 11 12 12 12 12 12 13 14 14 14 16 16 17 17 16 16 16 18 20 22 21 20 24 27 26 24 24 22 21 21 21 19 18 18 18 19 19
10 10 10 10 10 10 10 9 9 9 10 9 9 8 7 8 7 7 8 8 6 6 7 7 6 6 7 7 7 6 6 7 6 6 7 7 7 6 6 7 7 8 8 8 10 12 12 11 11 12 12 12 13 13 14 14 15 16 17 16 16 16 16 16 17 18 21 21 20 22 25 25 25 26 24 22 23 24 22 20 19 18 18 19 19
11 11 11 11 11 11 10 11 11 11 11 10 9 10 9 9 8 8 8 8 7 7 7 7 6 6 7 7 6 6 6 6 7 6 7 7 7 7 7 7 7 8 8 8 10 12 12 13 12 12 13 13 14 13 13 14 15 17 17 16 16 16 16 17 17 18 20 21 22 23 23 23 26 26 23 24 26 25 23 21 20 19 19 19 18
12 12 11 11 12 12 11 12 12 11 11 10 9 10 11 10 9 8 9 9 9 8 7 7 7 7 7 7 7 7 7 7 8 7 7 7 7 7 7 7 8 8 8 8 9 11 12 14 14 14 14 15 14 13 14 15 16 16 16 17 17 17 17 17 17 17 19 21 22 22 22 24 26 23 22 26 28 26 24 22 21 19 18 18 18
12 12 12 12 13 12 12 12 12 11 11 10 10 11 10 10 10 9 9 9 9 9 9 8 8 9 9 9 8 8 8 8 9 8 7 7 7 7 7 8 9 9 9 10 10 11 12 14 15 16 16 15 14 14 15 16 17 17 17 17 17 16 16 17 17 17 18 19 20 20 23 24 22 21 24 27 27 26 25 24 22 19 17 16 16
13 12 13 13 13 13 12 12 12 11 12 11 11 12 11 11 10 10 10 10 9 10 9 9 9 9 9 9 9 9 9 10 9 9 9 9 9 8 8 9 9 9 10 10 11 11 13 14 16 16 15 14 15 15 15 16 17 18 18 17 17 17 17 18 19 19 18 19 20 21 22 20 20 23 26 26 25 25 24 23 22 19 17 16 16
14 14 13 13 13 13 13 13 13 13 13 12 12 12 12 11 11 10 11 11 10 10 10 10 10 10 10 10 10 10 11 11 11 10 10 10 9 9 9 10 10 10 10 11 11 12 13 14 15 15 15 15 15 16 16 16 17 17 16 18 19 19 19 20 21 21 21 23 24 22 20 19 22 25 25 24 24 23 22 21 20 19 19 18 18
15 15 15 14 14 14 13 13 13 13 13 13 13 13 13 12 12 11 11 11 11 11 11 11 11 11 11 11 11 12 12 12 13 11 10 10 10 10 10 10 11 12 12 12 12 13 14 15 15 16 16 16 17 17 16 15 16 16 16 18 20 21 21 21 22 24 26 27 24 21 21 24 26 26 25 23 22 20 20 19 18 18 20 19 21
15 15 15 15 15 15 14 14 14 14 14 13 13 14 13 12 12 12 12 12 12 12 12 12 12 12 12 12 12 13 13 14 16 15 13 13 14 14 13 14 15 15 15 14 14 15 15 16 16 17 17 17 17 16 16 15 16 17 18 18 20 21 22 23 26 29 30 28 25 25 27 31 31 29 26 23 20 18 18 17 16 17 18 20 22
17 16 16 16 16 16 15 15 15 15 14 14 15 15 14 13 12 11 12 12 12 13 13 13 13 13 13 13 13 14 15 16 18 19 18 17 17 17 17 17 17 17 17 17 17 16 16 17 17 18 18 18 17 16 17 17 16 17 18 20 22 24 26 29 32 32 31 29 27 29 33 36 35 31 26 22 19 17 16 15 16 18 20 22 22
17 18 18 17 18 17 16 16 15 15 15 16 17 17 17 16 14 13 12 12 12 13 14 14 15 14 14 14 14 15 17 18 20 21 20 20 19 18 18 18 18 18 19 19 19 18 18 18 18 18 18 18 18 17 18 18 18 18 20 22 25 28 30 31 33 33 33 30 28 32 36 37 32 27 24 21 19 17 15 16 19 21 22 23 22
17 19 19 19 20 19 17 17 16 15 17 19 19 19 20 20 18 17 16 14 13 13 14 14 15 15 15 15 15 15 16 17 18 18 17 18 19 18 17 18 19 19 20 20 20 20 20 20 20 19 19 19 20 19 19 20 21 23 26 27 29 30 30 31 33 35 35 33 33 36 38 33 27 24 22 20 18 17 17 18 21 23 24 24 24
19 19 19 19 20 20 19 18 16 16 19 21 21 22 23 22 21 19 18 17 16 15 15 15 15 15 16 16 16 16 16 16 16 15 16 19 21 20 18 19 20 20 20 20 20 20 20 21 21 22 21 22 23 24 23 23 25 27 28 29 29 30 32 33 36 38 37 36 34 34 33 29 25 23 22 20 19 18 18 19 21 24 25 25 24
22 21 19 18 17 17 19 18 16 17 20 22 21 22 24 23 22 19 18 19 18 16 15 16 16 16 16 17 17 17 18 18 17 17 19 21 23 21 19 20 21 21 21 21 20 20 20 21 22 22 23 23 24 26 25 24 25 26 27 29 31 33 35 37 38 38 37 34 29 27 29 29 26 23 22 22 21 20 19 19 21 24 26 25 23
23 23 22 20 17 15 15 16 16 19 21 22 22 23 23 22 21 19 18 19 19 18 16 15 15 16 16 17 18 17 18 19 20 21 21 20 20 20 21 22 22 21 21 20 19 19 20 21 22 22 22 22 23 25 25 25 26 28 29 31 34 36 38 38 37 35 32 27 22 22 27 28 24 23 24 23 22 21 21 21 21 24 26 26 24
22 22 22 22 20 18 16 15 15 18 20 21 23 23 22 22 20 18 18 18 19 19 18 16 15 16 18 19 19 16 16 18 21 22 23 21 20 21 23 23 22 21 19 19 19 19 19 21 23 24 24 25 25 26 26 27 29 30 31 33 34 34 34 34 32 29 26 22 19 20 25 27 25 24 25 24 23 24 24 23 22 22 24 25 26
18 18 18 20 20 20 20 18 16 18 20 22 24 23 23 23 21 19 19 18 18 18 18 19 19 20 20 21 19 17 16 17 18 20 21 22 21 21 22 22 21 20 19 19 20 21 21 22 24 26 27 27 27 26 27 27 27 26 27 28 27 26 26 27 28 27 25 23 21 19 22 25 24 24 26 27 27 27 27 26 23 21 22 25 26
16 16 17 18 18 18 20 18 16 18 21 22 23 23 23 22 21 20 19 18 17 15 15 18 21 21 22 21 20 20 20 21 21 22 23 23 23 23 23 22 20 19 19 21 22 22 21 22 24 26 26 26 26 27 27 26 24 22 23 24 23 22 22 23 25 26 26 25 21 18 20 22 23 24 26 28 29 27 26 26 25 23 22 24 26
14 14 15 16 16 16 17 16 16 18 20 20 20 20 20 20 19 18 17 16 16 13 11 15 19 19 19 20 20 21 22 23 24 24 23 23 23 23 23 22 20 19 20 23 24 23 23 23 25 26 25 26 26 25 24 23 22 22 23 22 21 22 22 22 23 25 26 24 20 19 22 24 24 24 24 25 30 31 28 26 26 24 23 23 25
Wind_Direction
118 120 125 123 118 119 120 118 115 113 110 107 102 93 91 93 92 94 101 100 102 105 101 102 104 101 98 96 96 95 95 98 97 105 106 59 50 63 69 80 90 92 93 95 95 94 93 91 90 90 88 85 84 80 76 72 68 64 59 54 49 46 41 36 31 23 15 6 1 356 353 349 345 341 335 331 328 325 321 316 311 305 300 297 295
128 130 130 123 115 116 119 117 108 103 103 102 98 89 91 95 88 87 88 92 102 106 107 108 104 101 100 99 95 92 93 90 89 97 111 117 53 67 81 82 86 90 91 95 96 93 91 89 87 87 86 83 80 76 71 65 61 55 49 43 38 33 27 20 13 6 360 354 351 348 346 345 342 340 336 335 332 330 326 321 316 311 309 305 302
133 132 127 121 119 117 113 109 104 102 105 101 96 97 98 98 103 99 89 99 109 106 107 107 103 100 99 102 100 96 95 90 93 97 104 122 96 68 79 83 84 87 92 94 92 89 85 85 86 84 82 77 72 67 62 57 50 43 37 31 26 21 15 11 5 1 358 354 352 351 350 349 347 345 343 340 337 336 330 326 321 316 314 309 306
133 129 122 119 123 122 117 116 113 112 115 113 107 104 97 96 106 101 94 104 104 106 109 104 103 102 101 104 103 99 100 100 106 110 102 105 105 66 63 81 88 86 88 89 86 85 83 82 82 78 72 66 63 58 52 45 38 32 26 21 16 13 11 9 9 10 7 6 4 3 2 359 358 355 352 350 346 344 341 336 329 319 314 307 303
133 126 120 123 124 122 123 122 117 116 120 115 99 87 83 84 87 80 88 109 106 108 108 105 105 104 109 107 104 102 101 101 104 112 101 91 101 91 54 64 78 85 85 84 81 81 81 78 70 63 61 57 54 49 42 35 28 23 18 14 10 10 13 15 18 21 20 20 20 18 17 13 10 7 5 3 358 356 355 349 339 327 320 315 309
131 122 124 129 125 124 123 121 120 112 109 107 92 83 88 84 82 83 97 104 105 111 109 113 106 99 108 105 111 111 103 110 110 114 118 117 112 107 97 47 59 74 71 67 72 76 71 65 57 50 51 50 48 42 36 30 23 19 15 11 15 20 25 30 33 36 36 34 33 31 30 26 23 20 16 12 9 7 4 358 351 343 335 331 326
131 123 127 127 121 123 119 117 114 101 100 106 97 101 106 92 97 100 101 99 101 107 105 110 102 102 106 99 112 106 101 117 117 121 116 106 107 116 132 114 82 40 44 37 48 61 54 47 47 46 49 48 45 39 32 26 20 17 17 20 30 38 41 45 47 48 47 45 42 39 36 34 29 27 23 18 16 14 10 5 360 354 348 344 337
134 124 120 121 122 124 120 119 110 106 132 114 99 114 114 111 112 92 103 109 109 111 105 105 105 111 115 110 117 108 112 116 94 117 124 107 107 107 114 124 123 84 77 36 15 40 39 37 43 46 48 46 40 36 30 24 21 21 27 37 45 50 53 55 55 54 51 47 44 41 37 35 31 27 24 20 18 16 13 8 3 360 355 351 343
137 126 118 126 129 124 129 125 117 135 140 111 103 126 108 108 104 97 105 87 92 119 112 116 119 119 123 123 125 120 129 138 110 124 132 123 122 116 117 49 32 38 58 64 357 6 15 32 45 44 41 43 39 36 32 28 30 36 44 54 57 58 59 58 57 53 50 46 42 40 36 32 29 25 22 20 18 15 13 9 4 3 358 354 348
141 131 125 135 135 133 146 135 135 145 126 111 127 120 103 92 86 101 107 69 69 97 96 105 119 121 126 128 137 124 115 156 147 139 131 111 127 136 139 33 27 24 38 98 53 355 352 15 30 32 36 41 41 40 40 40 43 50 56 60 61 60 57 54 53 49 46 43 40 37 35 31 27 23 21 19 17 15 12 10 7 4 1 356 350
144 139 133 137 139 145 153 140 140 137 119 118 131 125 135 122 102 108 97 83 74 75 83 83 88 101 107 112 131 137 118 146 151 146 165 139 144 149 137 84 89 17 19 59 48 6 2 12 16 13 23 36 40 40 42 46 51 56 57 59 59 58 55 50 47 45 42 40 38 36 32 29 26 23 21 18 16 14 12 11 10 8 5 360 354
146 145 140 140 144 149 150 141 140 133 121 120 127 141 139 122 126 113 80 71 85 76 81 83 93 96 92 103 113 131 120 132 178 182 171 154 149 151 147 109 110 129 31 62 72 14 353 33 41 356 354 20 31 35 40 46 49 53 53 53 54 53 50 46 43 40 37 36 34 32 28 25 23 22 21 17 14 12 11 12 13 12 9 4 358
147 145 144 145 148 151 149 140 137 139 133 137 151 147 130 114 118 106 74 52 85 87 94 99 118 116 112 119 106 101 89 84 149 180 170 166 159 123 137 156 137 118 116 97 84 82 339 34 54 358 344 10 11 13 27 42 46 46 47 46 46 45 42 40 38 35 32 30 28 26 24 21 20 20 19 16 12 10 10 13 14 12 9 6 1
147 147 148 148 149 151 152 147 147 150 137 135 140 132 123 112 98 95 87 77 82 90 105 106 124 133 129 125 111 107 98 58 181 188 190 169 162 148 128 158 143 101 117 83 62 69 27 43 44 348 12 21 1 353 1 24 38 40 41 41 40 38 36 34 32 29 27 25 24 23 21 19 18 17 17 15 11 9 9 11 10 8 6 4 1
149 151 151 153 153 151 153 154 151 144 136 135 130 124 121 104 83 95 102 109 102 92 98 98 104 126 131 132 131 115 104 194 219 167 178 174 174 174 131 127 124 111 140 106 71 72 52 53 24 358 18 24 23 7 342 359 23 35 36 37 35 33 31 29 27 24 22 21 20 20 18 16 15 13 14 13 11 8 7 6 5 4 4 2 1
153 153 158 162 157 153 156 161 156 146 142 135 120 116 113 101 103 101 88 103 113 97 87 103 118 125 131 146 145 119 105 148 165 138 121 177 176 156 130 127 120 123 156 130 118 168 185 78 25 2 5 17 25 41 352 347 9 29 31 31 30 29 28 25 24 21 18 17 15 15 14 13 11 10 11 11 9 7 4 3 2 3 2 1 0
161 158 167 170 162 162 162 162 163 149 134 125 125 132 120 112 117 93 74 101 116 105 90 96 117 111 81 77 97 92 55 77 125 132 95 68 113 118 131 133 105 75 93 131 157 227 186 86 20 5 8 22 16 26 22 357 2 14 19 25 27 27 27 23 21 18 15 13 11 10 8 8 8 7 8 8 7 5 2 1 1 2 1 0 0
166 165 174 175 170 171 164 159 167 159 147 150 154 137 119 116 110 85 93 112 102 106 105 96 99 90 77 70 68 71 42 27 66 86 49 25 10 139 133 142 122 82 354 187 246 83 148 352 6 16 24 27 18 29 32 5 2 360 1 14 21 22 23 21 19 15 12 8 6 6 4 3 4 3 4 4 4 2 359 359 360 360 359 359 360
169 174 178 179 175 174 168 160 163 171 160 145 125 119 131 152 138 124 134 122 100 93 99 101 96 83 88 91 70 77 97 89 62 43 350 346 338 164 129 156 165 103 40 256 32 50 29 355 347 28 27 19 20 34 30 359 1 354 349 358 3 9 13 13 13 9 7 3 0 1 360 359 359 359 0 359 359 359 358 358 358 358 357 357 358
176 184 178 181 180 175 176 165 159 177 168 138 126 165 183 170 147 140 138 127 115 107 100 96 90 87 93 91 76 73 89 106 89 65 332 334 349 354 63 94 83 35 25 27 24 22 14 1 5 30 35 4 356 14 9 349 348 339 345 348 344 352 359 360 3 1 359 357 354 353 353 353 353 353 354 354 353 354 354 355 356 357 356 354 355
179 185 179 183 182 177 181 172 166 174 164 145 163 185 185 167 148 143 140 129 123 128 118 101 87 89 92 91 90 64 48 126 143 84 84 316 327 24 24 56 41 359 359 358 360 11 8 1 3 20 50 360 331 321 325 334 335 332 340 342 336 338 345 348 352 352 351 349 347 345 345 346 346 345 345 346 347 347 348 350 353 355 354 352 352
183 186 183 185 184 180 182 177 171 170 162 168 188 185 173 165 159 156 158 152 140 133 125 112 107 101 92 102 96 56 18 55 344 6 74 336 328 4 14 360 339 345 346 321 325 349 336 351 1 293 302 329 304 308 323 326 335 342 335 331 330 331 335 340 342 343 343 342 342 340 338 338 339 339 338 340 342 343 343 343 347 351 352 350 349
186 191 186 188 191 183 181 181 179 179 176 175 182 187 177 175 173 165 165 163 156 153 144 135 137 122 101 104 85 22 312 352 341 339 2 344 336 345 25 4 335 343 3 323 313 322 305 331 350 281 295 310 301 312 325 328 335 339 329 321 321 324 328 330 334 336 336 337 338 337 334 332 333 334 335 338 340 341 342 341 342 346 348 348 347
183 190 184 188 196 188 184 187 188 187 180 170 180 194 185 186 192 168 157 162 165 169 154 136 200 193 167 214 279 300 286 298 312 323 329 335 325 308 336 354 327 324 354 325 310 308 297 316 332 300 310 320 316 316 324 332 325 322 324 316 313 320 324 323 327 330 331 334 335 334 332 329 329 331 334 337 340 341 342 342 340 342 344 346 345
181 185 182 188 196 193 189 191 193 192 186 182 190 189 176 177 196 174 164 176 173 185 169 161 234 226 217 251 272 288 292 298 300 302 310 323 333 322 321 326 313 307 317 315 314 311 300 316 320 305 314 326 324 317 323 327 313 312 314 306 308 319 318 316 321 327 331 332 332 332 331 329 328 331 334 337 341 341 342 343 341 341 342 343 343
180 180 180 187 193 193 193 194 197 197 195 194 192 188 182 187 193 173 188 227 200 190 193 226 262 244 249 268 277 283 288 301 303 296 304 317 336 341 336 324 315 309 307 312 320 314 311 328 314 306 323 336 324 323 325 319 316 320 311 306 314 316 308 311 317 324 329 330 330 330 330 331 331 332 335 337 339 339 338 340 340 339 340 340 341
179 181 183 189 192 192 193 195 199 201 201 200 194 196 197 198 200 183 187 235 236 205 211 251 267 261 264 271 267 273 286 296 299 299 312 326 333 331 334 331 323 317 311 310 311 307 313 327 317 316 334 331 319 324 326 316 316 321 314 311 313 308 306 310 314 319 326 329 331 331 330 333 333 333 334 335 335 335 334 336 337 337 337 338 339
184 189 190 192 193 190 191 195 199 201 202 200 194 202 207 202 212 201 182 234 258 229 220 245 267 271 275 276 269 273 285 289 298 303 301 301 303 314 322 329 327 322 318 313 308 305 309 314 314 318 325 318 321 327 327 321 312 308 309 309 309 312 309 306 309 317 326 333 337 336 333 334 335 335 336 335 334 332 330 331 332 333 335 336 337
184 189 190 192 193 187 185 193 200 199 199 203 200 206 209 203 219 221 196 221 241 227 222 238 260 272 273 279 280 281 285 287 295 295 286 287 291 299 306 307 312 317 317 314 311 309 311 312 310 311 315 320 325 324 322 318 305 300 307 309 311 313 306 305 317 328 332 335 338 339 338 338 336 336 336 335 335 332 329 328 327 328 332 335 337
177 191 195 194 196 189 185 191 196 195 196 203 207 212 213 209 224 232 220 227 234 225 227 230 238 259 257 263 276 279 287 291 290 289 291 295 293 287 289 292 295 301 304 304 305 309 313 315 311 310 316 320 320 318 317 314 307 306 311 310 309 310 315 330 343 338 331 330 332 335 337 338 337 337 337 337 336 333 329 326 324 323 327 332 335
180 192 195 193 198 195 191 194 194 195 200 204 209 214 215 214 226 239 247 253 245 229 235 233 232 254 252 249 263 267 276 286 284 284 286 287 288 285 284 285 288 292 298 299 300 307 314 314 310 310 314 316 315 314 313 313 312 311 311 311 311 317 332 345 341 328 326 327 326 326 329 333 335 334 334 335 336 335 332 328 324 320 321 326 331
189 191 188 191 200 196 192 195 193 197 205 205 210 216 214 215 217 219 243 262 259 240 241 239 232 245 250 248 254 259 265 274 280 285 285 278 277 278 280 287 292 294 300 302 301 306 311 309 307 309 312 313 313 312 311 314 315 311 309 312 316 323 331 331 323 321 324 324 322 321 325 329 331 332 332 333 334 335 334 332 327 320 317 320 325
194 193 190 191 198 194 191 195 192 200 210 203 206 218 215 217 215 207 223 247 252 243 246 244 238 242 249 250 253 259 265 269 270 275 279 278 275 275 276 280 282 280 284 295 300 302 307 309 307 308 310 312 313 312 312 313 313 310 310 314 319 322 321 317 316 319 321 322 321 321 325 327 330 333 333 333 336 336 335 334 331 324 319 319 321
195 194 194 195 197 193 193 196 190 202 220 208 202 217 218 218 218 211 228 250 249 239 244 248 245 246 254 259 262 266 270 273 273 273 275 278 278 276 274 276 278 276 276 285 292 296 303 306 305 307 310 310 308 308 310 312 312 313 314 315 316 317 316 315 316 318 319 321 321 322 324 324 328 332 333 334 337 337 334 332 331 329 325 322 321
196 196 196 198 203 197 191 201 199 203 223 216 201 213 221 223 221 211 222 243 247 240 244 251 253 251 257 264 266 263 262 264 265 267 271 275 279 279 277 276 278 280 280 284 289 294 300 303 305 308 309 307 306 309 312 312 311 311 312 312 312 315 315 314 316 319 319 318 318 322 323 322 326 329 330 331 333 334 335 333 331 330 328 326 324
197 199 196 196 211 209 196 207 211 206 218 220 207 214 224 229 229 222 220 228 235 237 237 241 246 246 250 256 258 256 253 254 258 263 270 274 276 278 281 283 284 285 287 286 288 292 296 300 305 308 309 311 313 313 311 310 310 310 310 311 312 313 314 315 318 319 316 315 319 323 322 320 323 325 324 325 328 331 333 333 331 330 327 326 326
199 201 200 196 212 218 204 209 217 209 212 217 212 214 223 230 232 230 233 234 236 240 240 240 242 244 247 252 254 255 254 256 260 263 265 266 269 275 280 282 284 285 285 284 287 291 293 297 302 307 311 312 311 309 310 311 311 311 311 313 315 316 315 315 317 318 317 317 319 319 317 318 323 323 320 322 324 326 329 330 331 331 328 328 329
202 203 205 201 210 217 207 206 215 216 214 216 217 215 216 226 232 229 233 238 239 241 244 246 248 251 253 256 259 259 258 258 259 261 261 260 263 271 274 275 278 282 285 288 291 292 293 295 299 304 306 306 305 306 307 308 308 310 312 315 318 317 314 314 317 320 321 318 317 320 321 321 321 318 317 319 320 321 323 325 327 329 330 333 334
208 206 206 205 208 214 211 207 212 222 222 217 221 221 214 218 230 232 233 237 239 241 245 247 249 251 252 254 258 260 260 260 259 259 264 268 269 268 269 273 277 278 281 285 287 287 287 290 293 297 298 298 302 304 305 308 310 310 312 314 315 315 314 315 317 318 319 319 321 325 325 320 317 317 317 317 315 315 317 319 324 326 324 328 332
215 214 214 213 212 214 216 214 213 223 230 224 224 229 225 221 226 231 235 237 237 241 245 247 250 251 252 252 254 257 259 260 259 258 259 261 263 263 264 266 268 270 274 279 281 281 283 287 289 292 294 297 301 303 304 308 310 309 311 313 312 312 313 313 314 316 319 322 321 319 319 320 320 319 317 315 312 311 314 318 322 317 311 316 323
217 219 219 219 220 219 221 221 219 223 229 229 228 231 231 228 229 232 237 240 242 244 247 249 251 253 255 256 257 258 257 252 254 262 262 254 255 259 261 261 263 268 272 275 278 281 284 287 290 293 295 297 300 303 303 305 307 308 310 311 309 309 310 309 311 315 318 319 317 313 316 322 322 319 318 318 316 314 313 315 315 308 303 307 315
217 219 220 221 223 224 224 225 225 227 228 230 232 234 233 230 229 230 235 240 243 244 247 250 252 254 256 259 262 264 262 257 259 269 272 266 262 264 267 269 272 275 278 281 283 283 284 285 288 292 295 297 299 301 302 303 305 305 306 307 307 308 310 310 312 316 318 317 314 311 314 321 322 320 320 319 315 313 313 310 306 302 300 302 309
219 220 220 221 222 224 227 227 228 232 233 231 232 237 240 239 232 228 232 239 244 247 249 251 254 257 258 259 261 263 265 265 266 271 273 268 264 266 271 276 278 279 281 284 285 286 286 285 287 290 292 294 297 299 300 301 302 303 303 305 307 309 310 311 311 313 316 315 311 308 312 319 321 316 316 318 314 313 312 304 301 305 306 306 311
222 223 223 224 225 224 227 230 231 235 239 237 233 234 242 246 244 238 237 241 247 253 255 256 258 261 261 262 262 263 266 267 266 271 275 269 262 263 269 275 278 279 281 282 282 283 284 283 284 287 289 292 295 296 299 299 298 300 302 304 307 307 308 309 308 309 311 311 308 308 311 317 319 312 313 317 314 310 308 303 304 310 313 313 316
221 225 225 228 230 229 228 229 231 236 242 242 240 239 242 247 249 247 244 245 247 252 255 257 259 260 261 262 262 262 267 271 270 270 272 271 270 271 272 271 273 275 276 277 278 280 281 281 282 284 287 290 293 293 294 294 295 299 302 303 305 305 305 306 305 305 307 309 310 311 311 315 319 313 309 311 310 309 309 306 304 306 310 313 317
226 227 227 227 228 231 231 229 228 233 238 239 239 241 244 248 250 250 248 248 249 251 255 256 259 261 263 265 266 265 265 268 269 266 266 269 274 276 274 273 274 275 276 279 282 284 284 283 284 287 290 291 291 291 291 292 295 298 299 300 302 302 301 302 302 303 307 311 316 314 310 313 318 313 307 310 311 310 309 306 303 304 310 315 319
233 232 232 229 227 230 230 225 223 226 230 234 236 239 243 247 249 249 248 248 249 250 252 256 261 264 264 262 263 265 265 262 260 260 261 262 266 271 274 277 279 279 279 281 282 285 288 287 287 290 289 287 285 286 287 290 293 294 296 297 297 298 299 301 303 305 307 310 312 308 303 305 311 310 307 309 310 308 308 309 307 307 311 315 317
235 233 235 235 233 231 228 225 229 230 230 234 239 240 243 247 249 250 249 249 250 250 251 253 256 258 257 256 256 261 264 259 251 252 256 259 263 268 272 275 276 276 277 277 274 272 277 281 281 281 281 281 281 283 287 289 291 293 295 295 296 298 300 302 303 304 303 302 304 304 299 299 304 307 307 307 308 307 308 310 311 311 311 311 309
234 229 230 231 229 229 228 226 230 234 233 237 243 245 247 249 251 253 252 251 252 253 252 251 250 251 255 259 262 266 268 263 255 253 257 261 264 267 269 273 275 275 275 275 272 269 266 267 269 272 277 280 281 284 289 292 296 300 300 299 301 303 300 297 297 298 298 299 303 305 301 300 305 309 308 308 309 310 311 312 313 311 307 303 303
229 223 221 223 221 225 227 220 217 226 233 240 246 250 253 252 251 252 253 252 251 254 258 258 255 255 258 261 263 264 265 266 265 263 263 265 268 270 272 275 278 279 276 272 272 273 271 267 268 272 278 282 284 290 296 300 304 306 302 300 303 301 295 293 294 295 297 300 303 303 301 302 307 310 312 312 310 310 310 310 312 312 307 303 305
225 223 223 225 226 231 232 221 214 225 236 243 249 252 254 253 252 251 250 251 251 252 261 264 260 258 260 261 261 261 264 268 270 269 269 271 271 272 274 275 277 278 276 274 275 277 277 276 278 281 285 288 292 297 300 301 301 298 295 295 297 295 292 291 292 294 296 297 301 303 302 304 308 310 315 315 310 307 307 308 311 313 308 304 304